Location: *
(35.2348°S, 91.3916°E)
Time: 21:47:06
(UTC+00:00)

SAR-Lupe-2 - Pass Details

Date: 23 October 2019
Orbit: 480 x 485 km, 98.2° (Epoch: 08 November)

Event Time Altitude Azimuth Distance (km) Brightness Sun altitude
Rises 12:45:44 0° 5° (N) 2,542 7.0 -6.7°
Reaches altitude 10° 12:47:48 10° 1° (N) 1,671 6.1 -7.1°
Maximum altitude 12:51:20 57° 281° (WNW) 585 4.3 -7.8°
Drops below altitude 10° 12:54:57 10° 201° (SSW) 1,700 7.0 -8.4°
Sets 12:57:04 0° 197° (SSW) 2,591 7.8 -8.9°
